{"data":{"norad_id":53999,"epoch":"2026-09-20T13:48:32.072544Z","epoch_age_seconds":80187,"freshness":"FRESH","line1":"1 53999U 22125AM  26263.57537121 -.00003081  00000+0 -80111-4 0  9995","line2":"2 53999  53.1588  51.5756 0000846  87.6737 272.4362 15.34391630218981","mean_motion":15.3439163,"eccentricity":8.46e-5,"inclination_deg":53.1588,"raan_deg":51.5756,"arg_perigee_deg":87.6737,"mean_anomaly_deg":272.4362,"bstar":-8.0111e-5,"rev_number":21898,"period_min":93.848270014351,"perigee_km":462.14938053513,"apogee_km":463.30685491305,"semimajor_km":6840.8651177241,"source":"CELESTRAK","updated_at":"2026-09-21T09:00:33.072101Z"}}